When you browse on this site, cookies collect data to enhance your experience and personalize the content and advertising you see.
Visit our Privacy Policy to learn more. By continuing to use the site, you agree to this use of cookies and data.
  • In Hungary
  • List of Countries
  • For 7 days
  • Water Temperature
  • Satellite Maps
  • Weather Map
  • News
  • Weather Widgets
  • user-avatar
    Login

    Hourly Weather Zaafrana

    Today, 17 November, Saturday

    Time Temperature Precipitation Wind Pressure Humidity
    00:00 +17°C° 0 mm 2 mps 750 mmHg 66%
    01:00 +17°C° 0 mm 2 mps 750 mmHg 68%
    02:00 +17°C° 0 mm 2 mps 750 mmHg 71%
    03:00 +16°C° 0 mm 2 mps 750 mmHg 74%
    04:00 +16°C° 0 mm 2 mps 750 mmHg 77%
    05:00 +16°C° 0 mm 2 mps 750 mmHg 80%
    06:00 +17°C° 0 mm 2 mps 750 mmHg 76%
    07:00 +18°C° 0 mm 2 mps 750 mmHg 72%
    08:00 +19°C° 0 mm 2 mps 750 mmHg 68%
    09:00 +20°C° 0 mm 2 mps 750 mmHg 60%
    10:00 +21°C° 0 mm 2 mps 750 mmHg 51%
    11:00 +24°C° 0 mm 1 mps 750 mmHg 43%
    12:00 +24°C° 0 mm 1 mps 750 mmHg 39%
    13:00 +25°C° 0 mm 1 mps 749 mmHg 36%
    14:00 +25°C° 0 mm 1 mps 749 mmHg 33%
    15:00 +24°C° 0 mm 2 mps 749 mmHg 36%
    16:00 +23°C° 0 mm 2 mps 749 mmHg 39%
    17:00 +21°C° 0 mm 2 mps 748 mmHg 42%
    18:00 +20°C° 0 mm 2 mps 749 mmHg 45%
    19:00 +20°C° 0 mm 2 mps 749 mmHg 48%
    20:00 +19°C° 0 mm 2 mps 749 mmHg 52%
    21:00 +19°C° 0 mm 2 mps 749 mmHg 54%
    22:00 +18°C° 0 mm 2 mps 749 mmHg 56%
    23:00 +18°C° 0 mm 2 mps 749 mmHg 58%

    Tomorrow, 18 November, Sunday

    Time Temperature Precipitation Wind Pressure Humidity
    00:00 +17°C° 0 mm 2 mps 749 mmHg 60%
    01:00 +17°C° 0 mm 2 mps 748 mmHg 63%
    02:00 +17°C° 0 mm 2 mps 748 mmHg 66%
    03:00 +16°C° 0 mm 2 mps 748 mmHg 67%
    04:00 +16°C° 0 mm 2 mps 748 mmHg 68%
    05:00 +15°C° 0 mm 2 mps 748 mmHg 69%
    06:00 +17°C° 0 mm 2 mps 748 mmHg 62%
    07:00 +19°C° 0 mm 1 mps 748 mmHg 55%
    08:00 +21°C° 0 mm 1 mps 748 mmHg 48%
    09:00 +22°C° 0 mm 1 mps 748 mmHg 40%
    10:00 +24°C° 0 mm 1 mps 748 mmHg 33%
    11:00 +26°C° 0 mm 1 mps 748 mmHg 26%
    12:00 +26°C° 0 mm 1 mps 747 mmHg 24%
    13:00 +27°C° 0 mm 2 mps 747 mmHg 21%
    14:00 +27°C° 0 mm 2 mps 746 mmHg 19%
    15:00 +26°C° 0 mm 2 mps 746 mmHg 22%
    16:00 +24°C° 0 mm 2 mps 746 mmHg 24%
    17:00 +23°C° 0 mm 2 mps 746 mmHg 27%
    18:00 +22°C° 0 mm 1 mps 746 mmHg 29%
    19:00 +21°C° 0 mm 1 mps 746 mmHg 31%
    20:00 +21°C° 0 mm 1 mps 746 mmHg 33%
    21:00 +20°C° 0 mm 1 mps 746 mmHg 34%
    22:00 +19°C° 0 mm 1 mps 746 mmHg 35%
    23:00 +19°C° 0 mm 1 mps 746 mmHg 36%

    Day after tomorrow, 19 November, Monday

    Time Temperature Precipitation Wind Pressure Humidity
    00:00 +18°C° 0 mm 1 mps 746 mmHg 36%
    01:00 +18°C° 0 mm 1 mps 745 mmHg 35%
    02:00 +18°C° 0 mm 1 mps 745 mmHg 35%
    03:00 +16°C° 0 mm 1 mps 745 mmHg 35%
    04:00 +16°C° 0 mm 2 mps 745 mmHg 34%
    05:00 +16°C° 0 mm 2 mps 745 mmHg 34%
    06:00 +17°C° 0 mm 2 mps 746 mmHg 31%
    07:00 +19°C° 0 mm 2 mps 747 mmHg 29%
    08:00 +20°C° 0 mm 2 mps 747 mmHg 26%
    09:00 +23°C° 0 mm 2 mps 747 mmHg 24%
    10:00 +24°C° 0 mm 2 mps 748 mmHg 22%
    11:00 +26°C° 0 mm 2 mps 748 mmHg 20%
    12:00 +26°C° 0 mm 2 mps 747 mmHg 20%
    13:00 +27°C° 0 mm 2 mps 747 mmHg 19%
    14:00 +27°C° 0 mm 3 mps 746 mmHg 18%
    15:00 +26°C° 0 mm 2 mps 746 mmHg 22%
    16:00 +24°C° 0 mm 2 mps 747 mmHg 27%
    17:00 +23°C° 0 mm 2 mps 747 mmHg 31%
    18:00 +21°C° 0 mm 2 mps 747 mmHg 34%
    19:00 +21°C° 0 mm 2 mps 748 mmHg 38%
    20:00 +20°C° 0 mm 2 mps 748 mmHg 42%
    21:00 +20°C° 0 mm 2 mps 748 mmHg 44%
    22:00 +19°C° 0 mm 2 mps 748 mmHg 47%
    23:00 +19°C° 0 mm 2 mps 749 mmHg 49%

    20 November, Tuesday

    Time Temperature Precipitation Wind Pressure Humidity
    00:00 +19°C° 0 mm 2 mps 748 mmHg 52%
    01:00 +18°C° 0 mm 2 mps 748 mmHg 55%
    02:00 +18°C° 0 mm 2 mps 748 mmHg 58%
    03:00 +18°C° 0 mm 2 mps 748 mmHg 58%
    04:00 +18°C° 0 mm 2 mps 748 mmHg 59%
    05:00 +17°C° 0 mm 2 mps 748 mmHg 59%
    06:00 +19°C° 0 mm 2 mps 749 mmHg 54%
    07:00 +20°C° 0 mm 3 mps 749 mmHg 50%
    08:00 +21°C° 0 mm 3 mps 750 mmHg 45%
    09:00 +24°C° 0 mm 3 mps 750 mmHg 38%
    10:00 +26°C° 0 mm 3 mps 750 mmHg 31%
    11:00 +28°C° 0 mm 4 mps 750 mmHg 24%
    12:00 +28°C° 0 mm 4 mps 749 mmHg 22%
    13:00 +29°C° 0 mm 4 mps 749 mmHg 20%
    14:00 +29°C° 0 mm 4 mps 748 mmHg 18%
    15:00 +28°C° 0 mm 4 mps 748 mmHg 21%
    16:00 +26°C° 0 mm 3 mps 748 mmHg 25%
    17:00 +25°C° 0 mm 3 mps 748 mmHg 28%
    18:00 +24°C° 0 mm 3 mps 749 mmHg 30%
    19:00 +22°C° 0 mm 3 mps 749 mmHg 33%
    20:00 +21°C° 0 mm 3 mps 750 mmHg 36%
    21:00 +21°C° 0 mm 3 mps 750 mmHg 39%
    22:00 +20°C° 0 mm 3 mps 750 mmHg 42%
    23:00 +20°C° 0 mm 3 mps 750 mmHg 45%

    21 November, Wednesday

    Time Temperature Precipitation Wind Pressure Humidity
    00:00 +19°C° 0 mm 2 mps 749 mmHg 47%
    01:00 +19°C° 0 mm 2 mps 749 mmHg 48%
    02:00 +19°C° 0 mm 2 mps 749 mmHg 50%
    03:00 +18°C° 0 mm 2 mps 749 mmHg 51%
    04:00 +18°C° 0 mm 2 mps 748 mmHg 51%
    05:00 +18°C° 0 mm 2 mps 748 mmHg 52%
    06:00 +19°C° 0 mm 2 mps 749 mmHg 47%
    07:00 +20°C° 0 mm 2 mps 749 mmHg 42%
    08:00 +23°C° 0 mm 2 mps 749 mmHg 37%
    09:00 +24°C° 0 mm 2 mps 749 mmHg 31%
    10:00 +26°C° 0 mm 3 mps 749 mmHg 25%
    11:00 +28°C° 0 mm 3 mps 749 mmHg 20%
    12:00 +29°C° 0 mm 3 mps 748 mmHg 18%
    13:00 +29°C° 0 mm 4 mps 748 mmHg 16%
    14:00 +30°C° 0 mm 4 mps 747 mmHg 15%
    15:00 +28°C° 0 mm 4 mps 747 mmHg 18%
    16:00 +27°C° 0 mm 4 mps 747 mmHg 21%
    17:00 +25°C° 0 mm 3 mps 747 mmHg 23%
    18:00 +24°C° 0 mm 3 mps 748 mmHg 26%
    19:00 +24°C° 0 mm 3 mps 748 mmHg 29%
    20:00 +22°C° 0 mm 3 mps 748 mmHg 31%
    21:00 +21°C° 0 mm 3 mps 748 mmHg 34%
    22:00 +21°C° 0 mm 3 mps 748 mmHg 37%
    23:00 +21°C° 0 mm 3 mps 748 mmHg 39%

    22 November, Thursday

    Time Temperature Precipitation Wind Pressure Humidity
    00:00 +21°C° 0 mm 3 mps 748 mmHg 40%
    01:00 +20°C° 0 mm 3 mps 747 mmHg 41%
    02:00 +20°C° 0 mm 3 mps 747 mmHg 42%
    03:00 +20°C° 0 mm 3 mps 747 mmHg 42%
    04:00 +20°C° 0 mm 3 mps 747 mmHg 43%
    05:00 +20°C° 0 mm 3 mps 747 mmHg 43%
    06:00 +21°C° 0 mm 3 mps 747 mmHg 40%
    07:00 +22°C° 0 mm 3 mps 748 mmHg 37%
    08:00 +24°C° 0 mm 3 mps 748 mmHg 35%
    09:00 +26°C° 0 mm 3 mps 748 mmHg 30%
    10:00 +27°C° 0 mm 3 mps 747 mmHg 25%
    11:00 +29°C° 0 mm 3 mps 747 mmHg 21%
    12:00 +29°C° 0 mm 3 mps 747 mmHg 20%
    13:00 +30°C° 0 mm 3 mps 746 mmHg 19%
    14:00 +30°C° 0 mm 4 mps 745 mmHg 18%
    15:00 +29°C° 0 mm 3 mps 746 mmHg 21%
    16:00 +27°C° 0 mm 3 mps 746 mmHg 23%
    17:00 +26°C° 0 mm 3 mps 746 mmHg 26%
    18:00 +25°C° 0 mm 3 mps 746 mmHg 29%
    19:00 +24°C° 0 mm 2 mps 746 mmHg 32%
    20:00 +23°C° 0 mm 2 mps 747 mmHg 35%
    21:00 +21°C° 0 mm 2 mps 747 mmHg 37%
    22:00 +21°C° 0 mm 2 mps 747 mmHg 39%
    23:00 +20°C° 0 mm 2 mps 747 mmHg 41%
    Show more